EW2353 Weather Reports


time (UTC)temp
C
wind
direction
speed
KPH
gust
KPH
rain 1hr
cm
rain 24hr
cm
rain mn
cm
humidity
%
barometer
mb
20260902194833 33 249 6.4 11.3 0.00 0.00 0.00 63 1017.6
20260902194325 33 235 3.2 14.5 0.00 0.00 0.00 64 1017.6
20260902193818 33 186 4.8 17.7 0.00 0.00 0.00 64 1017.7
20260902193315 33 212 8.0 17.7 0.00 0.00 0.00 64 1017.8
20260902192828 33 245 4.8 12.9 0.00 0.00 0.00 62 1017.9
20260902192321 33 231 3.2 12.9 0.00 0.00 0.00 63 1017.9
20260902191834 33 240 4.8 14.5 0.00 0.00 0.00 63 1018.0
20260902191326 33 219 1.6 14.5 0.00 0.00 0.00 63 1018.0
20260902190818 33 188 6.4 14.5 0.00 0.00 0.00 66 1018.1
20260902190311 33 230 6.4 14.5 0.00 0.00 0.00 65 1018.1
20260902185845 33 231 1.6 14.5 0.00 0.00 0.00 64 1018.1
20260902185319 33 240 9.7 16.1 0.00 0.00 0.00 61 1018.1
20260902184833 33 293 8.0 16.1 0.00 0.00 0.00 62 1018.2
20260902184325 33 259 4.8 14.5 0.00 0.00 0.00 61 1018.2
20260902183817 33 219 3.2 16.1 0.00 0.00 0.00 62 1018.2
20260902183351 33 186 4.8 16.1 0.00 0.00 0.00 62 1018.2
20260902182822 33 205 4.8 9.7 0.00 0.00 0.00 62 1018.2
20260902182315 33 248 3.2 12.9 0.00 0.00 0.00 64 1018.2
20260902181828 33 160 3.2 12.9 0.00 0.00 0.00 64 1018.2
20260902181321 33 259 4.8 16.1 0.00 0.00 0.00 66 1018.3
20260902180814 33 268 8.0 16.1 0.00 0.00 0.00 66 1018.3
20260902180311 33 250 4.8 16.1 0.00 0.00 0.00 64 1018.4
20260902175824 33 263 8.0 16.1 0.00 0.00 0.00 65 1018.4
20260902175337 33 258 4.8 16.1 0.00 0.00 0.00 63 1018.4
20260902174828 33 247 8.0 16.1 0.00 0.00 0.00 63 1018.4
20260902174321 33 296 9.7 17.7 0.00 0.00 0.00 65 1018.5
20260902173814 33 253 3.2 16.1 0.00 0.00 0.00 67 1018.6
20260902173347 32 213 6.4 17.7 0.00 0.00 0.00 68 1018.7
20260902172818 32 231 6.4 27.4 0.00 0.00 0.00 64 1018.8
20260902172312 32 191 4.8 14.5 0.00 0.00 0.00 66 1018.8
20260902171829 32 256 3.2 16.1 0.00 0.00 0.00 66 1018.8
20260902171341 32 269 9.7 16.1 0.00 0.00 0.00 64 1018.9
20260902170833 32 274 3.2 17.7 0.00 0.00 0.00 66 1019.0
20260902170345 32 257 4.8 17.7 0.00 0.00 0.00 64 1019.0
20260902165836 32 269 8.0 17.7 0.00 0.00 0.00 66 1019.0
20260902165328 32 268 9.7 16.1 0.00 0.00 0.00 65 1019.0
20260902164820 32 268 9.7 16.1 0.00 0.00 0.00 67 1019.0
20260902164333 32 238 3.2 14.5 0.00 0.00 0.00 69 1019.1
20260902163824 32 243 9.7 14.5 0.00 0.00 0.00 66 1019.0
20260902163317 32 281 6.4 14.5 0.00 0.00 0.00 67 1019.1
20260902162830 32 269 4.8 16.1 0.00 0.00 0.00 67 1019.1
20260902162324 32 277 8.0 16.1 0.00 0.00 0.00 69 1019.1
20260902161836 32 212 6.4 16.1 0.00 0.00 0.00 69 1019.1
20260902161329 32 274 6.4 11.3 0.00 0.00 0.00 68 1019.1
20260902160821 32 264 4.8 12.9 0.00 0.00 0.00 70 1019.1
20260902160314 32 254 4.8 14.5 0.00 0.00 0.00 70 1019.1
20260902155827 31 272 6.4 14.5 0.00 0.00 0.00 70 1019.1
20260902155320 31 263 3.2 12.9 0.00 0.00 0.00 71 1019.2
20260902154813 31 273 6.4 12.9 0.00 0.00 0.00 72 1019.1
20260902154309 31 278 4.8 16.1 0.00 0.00 0.00 73 1019.2
20260902153823 31 250 8.0 16.1 0.00 0.00 0.00 71 1019.2
20260902153315 31 272 6.4 11.3 0.00 0.00 0.00 72 1019.3
20260902152848 31 276 4.8 14.5 0.00 0.00 0.00 72 1019.3
20260902152320 31 278 4.8 14.5 0.00 0.00 0.00 73 1019.3
20260902151811 31 192 1.6 12.9 0.00 0.00 0.00 76 1019.4
20260902151325 31 296 3.2 9.7 0.00 0.00 0.00 76 1019.3
20260902150817 30 250 3.2 9.7 0.00 0.00 0.00 75 1019.4
20260902150327 30 270 3.2 9.7 0.00 0.00 0.00 73 1019.3
20260902145823 30 266 4.8 12.9 0.00 0.00 0.00 76 1019.4
20260902145316 30 221 6.4 12.9 0.00 0.00 0.00 75 1019.4
20260902144848 30 235 8.0 11.3 0.00 0.00 0.00 76 1019.4
20260902144320 30 264 6.4 12.9 0.00 0.00 0.00 77 1019.5
20260902143812 30 258 9.7 12.9 0.00 0.00 0.00 78 1019.5
20260902143324 29 246 6.4 11.3 0.00 0.00 0.00 78 1019.5
20260902142836 29 240 6.4 12.9 0.00 0.00 0.00 78 1019.4
20260902142328 29 271 6.4 11.3 0.00 0.00 0.00 77 1019.3
20260902141818 28 258 8.0 11.3 0.00 0.00 0.00 78 1019.3
20260902141315 28 282 6.4 11.3 0.00 0.00 0.00 80 1019.3
20260902140828 28 257 6.4 11.3 0.00 0.00 0.00 81 1019.3
20260902140321 28 248 4.8 11.3 0.00 0.00 0.00 80 1019.3
20260902135812 28 262 6.4 14.5 0.00 0.00 0.00 81 1019.3
20260902135325 28 267 8.0 14.5 0.00 0.00 0.00 81 1019.3
20260902134839 28 250 4.8 9.7 0.00 0.00 0.00 83 1019.3
20260902134350 27 246 3.2 9.7 0.00 0.00 0.00 84 1019.3
20260902133822 27 215 3.2 11.3 0.00 0.00 0.00 84 1019.4
20260902133335 27 248 4.8 11.3 0.00 0.00 0.00 85 1019.4
20260902132826 27 233 6.4 9.7 0.00 0.00 0.00 85 1019.3
20260902132323 26 280 6.4 9.7 0.00 0.00 0.00 85 1019.3
20260902131815 26 243 4.8 9.7 0.00 0.00 0.00 87 1019.4
20260902131328 26 249 4.8 6.4 0.00 0.00 0.00 88 1019.3
20260902130821 26 271 3.2 9.7 0.00 0.00 0.00 89 1019.3
20260902130314 25 245 0.0 4.8 0.00 0.00 0.00 92 1019.3
20260902125847 25 232 1.6 4.8 0.00 0.00 0.00 93 1019.3
20260902125319 25 236 0.0 1.6 0.00 0.00 0.00 96 1019.3
20260902124811 25 212 0.0 0.0 0.00 0.00 0.00 97 1019.3
20260902124323 25 212 0.0 0.0 0.00 0.00 0.00 97 1019.3
20260902123819 24 212 0.0 0.0 0.00 0.00 0.00 97 1019.2
20260902123312 23 212 0.0 0.0 0.00 0.00 0.00 97 1019.2
20260902122825 23 212 0.0 0.0 0.00 0.00 0.00 97 1019.2
20260902122318 23 212 0.0 0.0 0.00 0.00 0.00 97 1019.2
20260902121811 22 212 0.0 0.0 0.00 0.00 0.00 97 1019.1
20260902121323 22 212 0.0 0.0 0.00 0.00 0.00 97 1019.2
20260902120816 22 212 0.0 0.0 0.00 0.00 0.00 97 1019.1
20260902120312 22 212 0.0 0.0 0.00 0.00 0.00 97 1019.0
20260902115825 21 212 0.0 0.0 0.00 0.00 0.00 97 1019.0
20260902115318 21 212 0.0 0.0 0.00 0.00 0.00 97 1019.0
20260902114811 21 212 0.0 0.0 0.00 0.00 0.00 97 1018.9
20260902114324 20 212 0.0 0.0 0.00 0.00 0.00 97 1018.9
20260902113817 20 212 0.0 0.0 0.00 0.00 0.00 97 1018.8
20260902113329 20 212 0.0 0.0 0.00 0.00 0.00 97 1018.7
20260902112822 20 212 0.0 0.0 0.00 0.00 0.00 97 1018.7
20260902112318 20 212 0.0 0.0 0.00 0.00 0.00 97 1018.6
20260902111811 20 212 0.0 0.0 0.00 0.00 0.00 97 1018.6
20260902111344 20 212 0.0 0.0 0.00 0.00 0.00 97 1018.5
20260902110816 20 212 0.0 0.0 0.00 0.00 0.00 97 1018.5
20260902110349 20 212 0.0 0.0 0.00 0.00 0.00 97 1018.4
20260902105820 20 212 0.0 0.0 0.00 0.00 0.00 97 1018.4
20260902105313 20 212 0.0 0.0 0.00 0.00 0.00 97 1018.5
20260902104826 20 212 0.0 0.0 0.00 0.00 0.00 97 1018.5
20260902104319 20 212 0.0 0.0 0.00 0.00 0.00 97 1018.5
20260902103816 20 212 0.0 0.0 0.00 0.00 0.00 97 1018.5
20260902103329 20 212 0.0 0.0 0.00 0.00 0.00 97 1018.5
20260902102821 20 212 0.0 0.0 0.00 0.00 0.00 97 1018.5
20260902102333 20 212 0.0 0.0 0.00 0.00 0.00 97 1018.5
20260902101845 20 212 0.0 0.0 0.00 0.00 0.00 97 1018.4
20260902101317 20 212 0.0 0.0 0.00 0.00 0.00 97 1018.5
20260902100810 20 212 0.0 0.0 0.00 0.00 0.00 97 1018.4
20260902100323 20 212 0.0 0.0 0.00 0.00 0.00 97 1018.4
20260902095816 19 212 0.0 0.0 0.00 0.00 0.00 97 1018.4
20260902095312 20 212 0.0 0.0 0.00 0.00 0.00 97 1018.4
20260902094825 20 212 0.0 0.0 0.00 0.00 0.00 97 1018.4
20260902094318 20 212 0.0 0.0 0.00 0.00 0.00 97 1018.3
20260902093811 20 212 0.0 0.0 0.00 0.00 0.00 97 1018.3
20260902093324 20 212 0.0 0.0 0.00 0.00 0.00 97 1018.3
20260902092817 20 212 0.0 0.0 0.00 0.00 0.00 97 1018.3
20260902092350 20 212 0.0 0.0 0.00 0.00 0.00 97 1018.3
20260902091821 20 212 0.0 0.0 0.00 0.00 0.00 97 1018.3
20260902091314 20 212 0.0 0.0 0.00 0.00 0.00 97 1018.2
20260902090811 20 212 0.0 0.0 0.00 0.00 0.00 97 1018.1
20260902090324 20 212 0.0 0.0 0.00 0.00 0.00 97 1018.2
20260902085816 20 212 0.0 0.0 0.00 0.00 0.00 97 1018.2
20260902085310 20 212 0.0 0.0 0.00 0.00 0.00 97 1018.2
20260902084822 20 212 0.0 0.0 0.00 0.00 0.00 97 1018.2
20260902084316 20 212 0.0 0.0 0.00 0.00 0.00 97 1018.1
20260902083828 20 212 0.0 0.0 0.00 0.00 0.00 97 1018.0
20260902083321 20 212 0.0 0.0 0.00 0.00 0.00 97 1018.0
20260902082818 20 212 0.0 0.0 0.00 0.00 0.00 97 1017.9
20260902082310 20 212 0.0 0.0 0.00 0.00 0.00 97 1017.7
20260902081823 20 212 0.0 0.0 0.00 0.00 0.00 97 1017.7
20260902081315 20 212 0.0 0.0 0.00 0.00 0.00 97 1017.7
20260902080829 20 212 0.0 0.0 0.00 0.00 0.00 97 1017.8
20260902080341 20 212 0.0 0.0 0.00 0.00 0.00 97 1017.7
20260902075813 20 212 0.0 0.0 0.00 0.00 0.00 97 1017.7
20260902075326 20 212 0.0 0.0 0.00 0.00 0.00 97 1017.7
20260902074823 20 212 0.0 0.0 0.00 0.00 0.00 97 1017.7
20260902074316 20 212 0.0 0.0 0.00 0.00 0.00 97 1017.7
20260902073828 20 212 0.0 0.0 0.00 0.00 0.00 97 1017.7
20260902073322 20 212 0.0 0.0 0.00 0.00 0.00 97 1017.6
20260902072814 20 212 0.0 0.0 0.00 0.00 0.00 97 1017.6
20260902072347 20 212 0.0 0.0 0.00 0.00 0.00 97 1017.6
20260902071819 20 212 0.0 0.0 0.00 0.00 0.00 97 1017.6
20260902071332 20 212 0.0 0.0 0.00 0.00 0.00 97 1017.7
20260902070823 20 212 0.0 0.0 0.00 0.00 0.00 97 1017.7
20260902070321 20 212 0.0 0.0 0.00 0.00 0.00 97 1017.7
20260902065813 20 212 0.0 0.0 0.00 0.00 0.00 97 1017.7
20260902065325 20 212 0.0 0.0 0.00 0.00 0.00 97 1017.7
20260902064818 20 212 0.0 0.0 0.00 0.00 0.00 97 1017.7
20260902064310 20 212 0.0 0.0 0.00 0.00 0.00 97 1017.8
20260902063823 20 212 0.0 0.0 0.00 0.00 0.00 97 1017.8
20260902063335 20 212 0.0 0.0 0.00 0.00 0.00 97 1017.7
20260902062828 21 212 0.0 0.0 0.00 0.00 0.00 97 1017.8
20260902062320 21 212 0.0 0.0 0.00 0.00 0.00 97 1017.8
20260902061817 21 212 0.0 0.0 0.00 0.00 0.00 97 1017.8
20260902061310 21 212 0.0 0.0 0.00 0.00 0.00 97 1017.8
20260902060843 21 212 0.0 0.0 0.00 0.00 0.00 97 1017.8
20260902060314 21 212 0.0 0.0 0.00 0.00 0.00 97 1017.8
20260902055828 21 212 0.0 0.0 0.00 0.00 0.00 97 1017.8
20260902055320 21 212 0.0 0.0 0.00 0.00 0.00 97 1017.8
20260902054833 21 212 0.0 0.0 0.00 0.00 0.00 97 1017.9
20260902054325 21 212 0.0 0.0 0.00 0.00 0.00 97 1017.8
20260902053818 21 212 0.0 0.0 0.00 0.00 0.00 97 1017.9
20260902053315 21 212 0.0 0.0 0.00 0.00 0.00 97 1017.9
20260902052826 21 212 0.0 0.0 0.00 0.00 0.00 97 1017.9
20260902052319 21 212 0.0 0.0 0.00 0.00 0.00 97 1017.9
20260902051812 21 212 0.0 0.0 0.00 0.00 0.00 97 1017.9
20260902051325 21 212 0.0 0.0 0.00 0.00 0.00 97 1017.9
20260902050818 21 212 0.0 0.0 0.00 0.00 0.00 97 1017.9
20260902050331 21 212 0.0 0.0 0.00 0.00 0.00 97 1017.9
20260902045823 21 212 0.0 0.0 0.00 0.00 0.00 97 1017.9
20260902045319 21 212 0.0 0.0 0.00 0.00 0.00 96 1017.8
20260902044812 21 212 0.0 0.0 0.00 0.00 0.00 96 1017.9
20260902044325 21 212 0.0 0.0 0.00 0.00 0.00 96 1017.9
20260902043818 21 212 0.0 0.0 0.00 0.00 0.00 96 1017.9
20260902043311 21 212 0.0 0.0 0.00 0.00 0.00 96 1017.9
20260902042824 21 212 0.0 0.0 0.00 0.00 0.00 96 1017.9
20260902042317 21 212 0.0 0.0 0.00 0.00 0.00 96 1017.9
20260902041810 22 212 0.0 0.0 0.00 0.00 0.00 96 1017.9
20260902041343 22 212 0.0 0.0 0.00 0.00 0.00 96 1017.9
20260902040839 22 212 0.0 0.0 0.00 0.00 0.00 96 1017.8
20260902040310 22 212 0.0 0.0 0.00 0.00 0.00 96 1017.9
20260902035823 22 212 0.0 0.0 0.00 0.00 0.00 96 1017.9
20260902035316 22 212 0.0 0.0 0.00 0.00 0.00 96 1017.9
20260902034827 22 212 0.0 0.0 0.00 0.00 0.00 96 1017.9
20260902034321 22 212 0.0 0.0 0.00 0.00 0.00 96 1017.9
20260902033813 22 212 0.0 0.0 0.00 0.00 0.00 96 1017.9
20260902033326 22 212 0.0 0.0 0.00 0.00 0.00 95 1017.9
20260902032823 22 212 0.0 0.0 0.00 0.00 0.00 95 1017.9
20260902032316 22 212 0.0 0.0 0.00 0.00 0.00 95 1017.9
20260902031829 22 212 0.0 0.0 0.00 0.00 0.00 95 1017.9
20260902031322 22 212 0.0 0.0 0.00 0.00 0.00 95 1018.0
20260902030815 22 212 0.0 0.0 0.00 0.00 0.00 95 1017.9
20260902030328 22 212 0.0 0.0 0.00 0.00 0.00 95 1017.8
20260902025820 22 212 0.0 0.0 0.00 0.00 0.00 95 1017.9
20260902025313 22 212 0.0 0.0 0.00 0.00 0.00 95 1017.9
20260902024846 22 212 0.0 0.0 0.00 0.00 0.00 95 1017.9
20260902024322 22 212 0.0 0.0 0.00 0.00 0.00 95 1017.9
20260902023815 22 212 0.0 0.0 0.00 0.00 0.00 95 1017.9
20260902023327 22 212 0.0 0.0 0.00 0.00 0.00 95 1017.9
20260902022820 23 212 0.0 0.0 0.00 0.00 0.00 95 1017.9
20260902022312 23 212 0.0 0.0 0.00 0.00 0.00 95 1017.8
20260902021824 23 212 0.0 0.0 0.00 0.00 0.00 94 1017.9
20260902021317 23 212 0.0 0.0 0.00 0.00 0.00 94 1017.9
20260902020814 23 212 0.0 0.0 0.00 0.00 0.00 94 1017.9
20260902020346 23 212 0.0 0.0 0.00 0.00 0.00 93 1017.8
20260902015818 23 212 0.0 0.0 0.00 0.00 0.00 93 1017.8
20260902015310 23 212 0.0 0.0 0.00 0.00 0.00 93 1017.7
20260902014823 23 212 0.0 0.0 0.00 0.00 0.00 93 1017.8
20260902014316 23 212 0.0 0.0 0.00 0.00 0.00 93 1017.7
20260902013848 23 212 0.0 0.0 0.00 0.00 0.00 93 1017.7
20260902013340 24 212 0.0 0.0 0.00 0.00 0.00 92 1017.7
20260902012812 24 212 0.0 0.0 0.00 0.00 0.00 92 1017.7
20260902012345 24 212 0.0 0.0 0.00 0.00 0.00 91 1017.6
20260902011816 24 212 0.0 0.0 0.00 0.00 0.00 91 1017.5
20260902011314 24 212 0.0 0.0 0.00 0.00 0.00 91 1017.4
20260902010826 25 212 0.0 0.0 0.00 0.00 0.00 90 1017.4
20260902010319 25 212 0.0 0.0 0.00 0.00 0.00 90 1017.3
20260902005812 25 212 0.0 0.0 0.00 0.00 0.00 89 1017.3
20260902005325 25 212 0.0 0.0 0.00 0.00 0.00 89 1017.2
20260902004818 25 212 0.0 0.0 0.00 0.00 0.00 87 1017.2
20260902004331 26 212 0.0 0.0 0.00 0.00 0.00 85 1017.1
20260902003822 26 212 0.0 0.0 0.00 0.00 0.00 84 1017.1
20260902003319 26 212 0.0 0.0 0.00 0.00 0.00 84 1017.2
20260902002811 27 212 0.0 0.0 0.00 0.00 0.00 82 1017.1
20260902002324 27 212 0.0 0.0 0.00 0.00 0.00 81 1017.1
20260902001816 28 212 0.0 0.0 0.00 0.00 0.00 79 1017.2
20260902001309 28 212 0.0 0.0 0.00 0.00 0.00 78 1017.2
20260902000843 29 212 0.0 0.0 0.00 0.00 0.00 77 1017.2
20260902000314 30 212 0.0 0.0 0.00 0.00 0.00 75 1017.3
20260901235825 30 212 0.0 0.0 0.00 0.00 0.00 74 1017.4
20260901235317 31 212 0.0 0.0 0.00 0.00 0.00 72 1017.3
20260901234814 31 212 0.0 0.0 0.00 0.00 0.00 70 1017.3
20260901234327 32 212 0.0 0.0 0.00 0.00 0.00 70 1017.4
20260901233819 32 212 0.0 1.6 0.00 0.00 0.00 69 1017.4
20260901233332 32 212 0.0 0.0 0.00 0.00 0.00 68 1017.5
20260901232823 32 212 0.0 0.0 0.00 0.00 0.00 68 1017.5
20260901232316 32 212 0.0 3.2 0.00 0.00 0.00 68 1017.6
20260901231829 32 212 0.0 3.2 0.00 0.00 0.00 68 1017.5
20260901231321 32 210 0.0 4.8 0.00 0.00 0.00 66 1017.6
20260901230819 33 226 0.0 3.2 0.00 0.00 0.00 66 1017.6
20260901230332 33 227 0.0 3.2 0.00 0.00 0.00 65 1017.6
20260901225823 33 209 0.0 1.6 0.00 0.00 0.00 66 1017.6
20260901225315 33 242 0.0 3.2 0.00 0.00 0.00 64 1017.5
20260901224828 33 242 0.0 3.2 0.00 0.00 0.00 65 1017.5
20260901224321 33 238 0.0 4.8 0.00 0.00 0.00 65 1017.5
20260901223814 33 219 0.0 9.7 0.00 0.00 0.00 65 1017.5
20260901223327 33 210 1.6 9.7 0.00 0.00 0.00 63 1017.5
20260901222819 33 218 1.6 6.4 0.00 0.00 0.00 65 1017.5
20260901222316 33 233 1.6 9.7 0.00 0.00 0.00 63 1017.5
20260901221828 33 219 1.6 9.7 0.00 0.00 0.00 63 1017.6
20260901221321 33 254 1.6 8.0 0.00 0.00 0.00 62 1017.6
20260901220813 33 253 1.6 6.4 0.00 0.00 0.00 64 1017.6
20260901220326 33 193 1.6 8.0 0.00 0.00 0.00 61 1017.5
20260901215819 33 240 3.2 11.3 0.00 0.00 0.00 62 1017.4
20260901215312 33 248 1.6 11.3 0.00 0.00 0.00 64 1017.4
20260901214825 33 219 3.2 12.9 0.00 0.00 0.00 65 1017.4
20260901214321 33 234 3.2 12.9 0.00 0.00 0.00 62 1017.4
20260901213814 33 136 3.2 9.7 0.00 0.00 0.00 64 1017.4
20260901213326 33 229 3.2 9.7 0.00 0.00 0.00 64 1017.4
20260901212816 33 250 4.8 9.7 0.00 0.00 0.00 61 1017.5
20260901212329 33 233 3.2 12.9 0.00 0.00 0.00 62 1017.4
20260901211822 33 236 1.6 12.9 0.00 0.00 0.00 64 1017.4
20260901211315 33 247 4.8 11.3 0.00 0.00 0.00 65 1017.5
20260901210811 33 239 3.2 8.0 0.00 0.00 0.00 63 1017.5
20260901210323 33 162 1.6 12.9 0.00 0.00 0.00 62 1017.5
20260901205816 33 201 3.2 16.1 0.00 0.00 0.00 62 1017.6
20260901205329 33 288 6.4 16.1 0.00 0.00 0.00 64 1017.5
20260901204821 33 211 1.6 16.1 0.00 0.00 0.00 64 1017.6
20260901204314 33 266 3.2 11.3 0.00 0.00 0.00 64 1017.6
20260901203827 33 236 4.8 11.3 0.00 0.00 0.00 63 1017.6
20260901203340 33 209 3.2 12.9 0.00 0.00 0.00 63 1017.6
20260901202812 33 197 3.2 17.7 0.00 0.00 0.00 63 1017.7
20260901202345 33 253 6.4 17.7 0.00 0.00 0.00 62 1017.7
20260901201821 33 203 4.8 11.3 0.00 0.00 0.00 61 1017.7
20260901201314 33 205 3.2 11.3 0.00 0.00 0.00 61 1017.7
20260901200826 33 269 6.4 11.3 0.00 0.00 0.00 61 1017.6
20260901200319 33 214 4.8 12.9 0.00 0.00 0.00 66 1017.6
20260901195812 33 218 4.8 16.1 0.00 0.00 0.00 63 1017.6
20260901195325 33 250 8.0 19.3 0.00 0.00 0.00 63 1017.6